[[{"header":{"parameterUnit":"m.s-1","parameterCategory":2,"la1":30.2991,"la2":30.254,"lo1":-89.0895,"lo2":-89.0444,"dy":0.0017,"dx":0.0017,"nx":28,"ny":28,"refTime":"2025-06-07T21:00:00:Z","depth":"0","parameterNumber":2,"parameterNumberName":"U-component_of_CURRENTS"},"data":[0,0,0,0,0,0,0,0,0,0,0,0,0,0,0,0,0,0,0,0,0,0,0,0,0,0,0,0,0,0,0,0,0,0,0,0,0,0,0,0,0,0,0,0,0,0,0,0,0,0,0,0,0,0,0,0,0,0,0.4162,0.4164,0,0.4263,0.4264,0.4265,0.4248,0.4247,0.4246,0.4244,0.4303,0.4306,0.4308,0,0,0,0,0,0,0,0,0,0,0,0,0,0.3919,0.3923,0.4162,0.4164,0.4166,0.4263,0.4264,0.4265,0.4249,0.4247,0.4245,0.4244,0.4302,0.4305,0.4309,0,0,0,0,0,0,0,0,0,0,0,0,0,0.4018,0.3925,0.4162,0.4173,0.4175,0.4263,0.4264,0.4265,0.4249,0.4247,0.4245,0.4243,0.4301,0.4305,0.4309,0.4373,0,0,0.4322,0.4323,0,0,0,0,0,0,0,0,0.4013,0.4027,0.4169,0.4172,0.4175,0.4246,0.42,0.4301,0.4249,0.4216,0.4244,0.4242,0.4285,0.429,0.4307,0.4376,0.4379,0.4322,0.4324,0.4326,0.4327,0,0,0,0,0,0,0,0.4006,0.4022,0.4197,0.4172,0.4175,0.4161,0.4173,0.4219,0.4255,0.4218,0.4219,0.4239,0.4285,0.4303,0.4308,0.4379,0.4322,0.4326,0.4328,0.433,0.4503,0.4505,0,0,0,0,0,0,0.4009,0.4017,0.4194,0.4201,0.4093,0.4167,0.418,0.4221,0.4255,0.4261,0.424,0.4238,0.4297,0.4303,0.431,0.4389,0.4326,0.433,0.4332,0.4501,0.4504,0.4506,0,0,0,0,0,0,0.4003,0.4024,0.419,0.4113,0.4133,0.4174,0.422,0.4224,0.4235,0.4273,0.4276,0.4245,0.4295,0.4304,0.4361,0.4391,0.4332,0.4336,0.4499,0.4502,0.4505,0.4547,0,0,0,0,0,0,0.3996,0.4022,0.4055,0.4114,0.4138,0.4245,0.4222,0.4228,0.4253,0.425,0.428,0.4283,0.4294,0.4355,0.4365,0.4395,0.4339,0.4496,0.45,0.4504,0.4542,0.4551,0.4558,0,0,0,0,0,0.3988,0.4049,0.4057,0.4078,0.4182,0.4247,0.4258,0.4275,0.4255,0.4273,0.4296,0.4282,0.4386,0.4361,0.4372,0.4404,0.4494,0.4499,0.4503,0.4539,0.4549,0.4558,0,0,0,0,0,0,0.398,0.4055,0.4065,0.4151,0.4193,0.4246,0.4275,0.4278,0.4311,0.4303,0.4318,0.4326,0.4392,0.4396,0.4367,0.4467,0.4435,0.4443,0.4458,0.4468,0.4476,0.4504,0.4342,0,0,0,0,0,0.3993,0.4045,0.4108,0.4176,0.4196,0.423,0.4258,0.4268,0.4307,0.4317,0.4344,0.4375,0.4426,0.4441,0.449,0.4544,0.457,0.457,0.4578,0.4584,0.4616,0.4654,0.4667,0.4522,0.4522,0.4521,0,0,0.4014,0.4059,0.4093,0.4175,0.4205,0.4261,0.4241,0.4287,0.4331,0.4322,0.4389,0.4414,0.4452,0.4518,0.4545,0.4518,0.4647,0.459,0.4595,0.4625,0.466,0.4674,0.4687,0.4525,0.4524,0.4524,0,0,0.4073,0.4115,0.4169,0.4206,0.4258,0.4283,0.4294,0.4347,0.4362,0.4436,0.4441,0.4488,0.4558,0.4592,0.4617,0.4699,0.4697,0.4699,0.4748,0.4783,0.4795,0.4806,0.4883,0.4901,0.4687,0.4687,0.4687,0,0.4092,0.4165,0.4195,0.425,0.4273,0.4293,0.4337,0.4385,0.4449,0.4464,0.4463,0.4575,0.4604,0.468,0.4716,0.4718,0.4745,0.4703,0.4792,0.4803,0.4814,0.489,0.4908,0.469,0.469,0.4689,0.4689,0,0.4185,0.4234,0.4267,0.4336,0.437,0.4409,0.4462,0.4499,0.4515,0.4553,0.4629,0.4682,0.4735,0.4754,0.4772,0.4855,0.4856,0.4805,0.4763,0.4831,0.4907,0.4926,0.4694,0.4693,0.4692,0.4691,0,0,0.4243,0.4312,0.4324,0.4335,0.4398,0.4432,0.4505,0.456,0.4598,0.4669,0.4728,0.4826,0.483,0.4862,0.4873,0.492,0.5033,0.49,0.4901,0.4971,0.5146,0.5074,0.5088,0.4979,0.4982,0.4984,0.5178,0,0.4291,0.4373,0.4399,0.4462,0.4491,0.451,0.4572,0.4625,0.4671,0.4748,0.4801,0.488,0.4875,0.4904,0.4952,0.503,0.5081,0.4989,0.5078,0.5083,0.5003,0.5105,0.4828,0.497,0.5196,0.5199,0.5201,0,0.4359,0.4396,0.4449,0.4477,0.4491,0.4535,0.458,0.4644,0.4747,0.4785,0.4856,0.4911,0.5037,0.5001,0.516,0.5097,0.5137,0.5182,0.5188,0.5123,0.5044,0.4936,0.4995,0.4832,0.523,0.5228,0.5225,0,0.4341,0.4418,0.4437,0.4456,0.4518,0.4529,0.4565,0.4645,0.4679,0.4819,0.4862,0.4995,0.5066,0.5157,0.5264,0.522,0.5429,0.536,0.5336,0.5333,0.5121,0.5093,0.5023,0.5453,0.5453,0.5452,0.5452,0,0.4357,0.4375,0.4428,0.4444,0.4466,0.4514,0.4544,0.4609,0.4694,0.474,0.4872,0.4938,0.5102,0.5227,0.5312,0.5408,0.5459,0.5397,0.5383,0.5131,0.5103,0.4967,0.4934,0.5459,0.5458,0.5456,0.5455,0,0.4325,0.436,0.4386,0.4441,0.4452,0.447,0.4506,0.4532,0.4632,0.4705,0.4755,0.4928,0.509,0.5246,0.5423,0.5446,0.5409,0.5559,0.5285,0.5235,0.5034,0.5015,0.489,0.4771,0.5589,0.5588,0.5588,0,0.4308,0.4322,0.4371,0.4364,0.4379,0.4404,0.4408,0.4493,0.4512,0.4678,0.4705,0.4898,0.4982,0.5252,0.5351,0.5506,0.5349,0.5333,0.5188,0.5027,0.4997,0.4847,0.4745,0.4948,0.4942,0.4937,0.4934,0,0.4273,0.4289,0.4309,0.4302,0.4297,0.4286,0.4302,0.4306,0.4407,0.4468,0.4565,0.4662,0.4901,0.4932,0.5138,0.5198,0.5059,0.5241,0.5114,0.4549,0.434,0.4212,0.4865,0.4892,0.4896,0.4899,0.4902,0.4903,0.4232,0.423,0.424,0.4209,0.4198,0.4138,0.4066,0.4096,0.4099,0.4108,0.4329,0.4341,0.4503,0.4738,0.4797,0.4704,0.4781,0.456,0.4582,0.4469,0.4235,0.4838,0.4808,0.4811,0.4814,0.4817,0.4819,0,0.4158,0.4148,0.4131,0.4067,0.3974,0.4007,0.3952,0.3837,0.3762,0.3832,0.387,0.3905,0.394,0.4075,0.4157,0.4061,0.3901,0.3961,0.3649,0.3608,0.416,0.4005,0.3745,0.3745,0.3745,0.3746,0.3746,0.3746,0.4115,0.4067,0.4041,0.3846,0.3775,0.357,0.349,0.3379,0.3347,0.3222,0.3175,0.3276,0.3551,0.3688,0.3613,0.3537,0.3308,0.3151,0.3249,0.3585,0.3639,0.3691,0.3532,0.3177,0.3176,0.246,0.2455,0.2451]},{"header":{"parameterUnit":"m.s-1","parameterCategory":2,"la1":30.2991,"la2":30.254,"lo1":-89.0895,"lo2":-89.0444,"dy":0.0017,"dx":0.0017,"nx":28,"ny":28,"refTime":"2025-06-07T21:00:00:Z","depth":"0","parameterNumber":3,"parameterNumberName":"V-component_of_CURRENTS"},"data":[0,0,0,0,0,0,0,0,0,0,0,0,0,0,0,0,0,0,0,0,0,0,0,0,0,0,0,0,0,0,0,0,0,0,0,0,0,0,0,0,0,0,0,0,0,0,0,0,0,0,0,0,0,0,0,0,0,0,0.0222,0.0221,0,0.0123,0.0122,0.0121,0.001,0.0008,0.0007,0.0005,-0.0107,-0.0108,-0.0109,0,0,0,0,0,0,0,0,0,0,0,0,0,0.0266,0.0266,0.0222,0.0221,0.022,0.0123,0.0122,0.0121,0.0011,0.0008,0.0006,0.0004,-0.0106,-0.0108,-0.011,0,0,0,0,0,0,0,0,0,0,0,0,0,0.0217,0.0266,0.0223,0.0152,0.0144,0.0123,0.0122,0.012,0.0011,0.0008,0.0006,0.0003,-0.0106,-0.0108,-0.011,-0.0068,0,0,-0.0116,-0.0117,0,0,0,0,0,0,0,0,0.022,0.0216,0.0163,0.0156,0.0148,0.0074,0.0096,0.0056,0.0012,0.0064,0.0005,0.0002,-0.0047,-0.0054,-0.0063,-0.0073,-0.0078,-0.0116,-0.0117,-0.0118,-0.0118,0,0,0,0,0,0,0,0.0224,0.0219,0.0185,0.0162,0.0153,0.0107,0.0097,0.0088,0.0026,0.0059,0.005,0.0037,-0.0051,-0.0061,-0.0067,-0.0079,-0.0116,-0.0118,-0.0119,-0.0119,-0.0047,-0.0045,0,0,0,0,0,0,0.0238,0.0223,0.0188,0.0182,0.0176,0.0108,0.0098,0.0102,0.0026,0.0012,0.0039,0.0032,-0.0056,-0.0064,-0.0071,-0.0015,-0.0118,-0.012,-0.0121,-0.005,-0.0047,-0.0043,0,0,0,0,0,0,0.024,0.0237,0.0192,0.0197,0.0188,0.0111,0.0116,0.0102,0.0083,0.0011,-0.0004,0.0034,-0.0059,-0.0068,-0.0066,-0.0021,-0.0121,-0.0122,-0.0054,-0.0049,-0.0045,0.0091,0,0,0,0,0,0,0.0242,0.0238,0.0256,0.0199,0.0188,0.0195,0.0118,0.0102,0.0078,0.0068,0.0002,-0.0011,-0.0062,-0.0062,-0.0068,-0.0025,-0.0124,-0.0058,-0.0052,-0.0047,0.0083,0.01,0.0115,0,0,0,0,0,0.0244,0.0289,0.0258,0.0253,0.0212,0.0197,0.0189,0.0124,0.0081,0.0094,0.005,-0.001,-0.003,-0.0061,-0.0069,-0.0025,-0.0061,-0.0054,-0.0047,0.0076,0.0097,0.0114,0,0,0,0,0,0,0.0322,0.028,0.0244,0.0275,0.024,0.0177,0.0186,0.0138,0.0114,0.0104,0.0027,0.0014,0.0034,-0.0003,-0.0036,0.0016,-0.0053,-0.0047,0.0043,0.0062,0.0078,0.0108,-0.0125,0,0,0,0,0,0.0348,0.0365,0.031,0.0334,0.0323,0.0256,0.0242,0.02,0.0164,0.0148,0.0105,0.0073,0.0063,0.0053,0.0038,0.007,0.0035,0.0096,0.0112,0.0126,0.0149,0.0142,0.0159,-0.0021,-0.0021,-0.0021,0,0,0.0386,0.0361,0.0372,0.035,0.0318,0.033,0.0243,0.0237,0.025,0.0146,0.0167,0.0128,0.0085,0.0115,0.0121,0.0084,0.016,0.0134,0.0146,0.0162,0.0151,0.0168,0.0183,-0.0016,-0.0017,-0.0018,0,0,0.0461,0.0449,0.0479,0.0464,0.0425,0.0395,0.0398,0.0349,0.0333,0.0347,0.028,0.0277,0.0254,0.0239,0.0225,0.0328,0.0245,0.0318,0.0419,0.0413,0.0427,0.0439,0.0418,0.0427,0.0325,0.0325,0.0325,0,0.0501,0.0527,0.0488,0.0508,0.0506,0.0432,0.0463,0.0454,0.0415,0.0426,0.0375,0.0368,0.0321,0.0362,0.0389,0.0364,0.0335,0.0343,0.0432,0.0443,0.0453,0.0428,0.0436,0.0332,0.0332,0.0331,0.033,0,0.0583,0.0606,0.0629,0.0629,0.0635,0.0652,0.0625,0.0642,0.0611,0.0591,0.0622,0.0566,0.0561,0.0547,0.0492,0.0551,0.0499,0.045,0.0379,0.0479,0.0447,0.0453,0.0343,0.034,0.0338,0.0336,0,0,0.0655,0.068,0.0685,0.0699,0.0696,0.0705,0.0763,0.0785,0.0828,0.08,0.0858,0.0828,0.0789,0.0773,0.0709,0.0695,0.0728,0.0608,0.0604,0.0579,0.0702,0.0678,0.0681,0.0683,0.0685,0.0686,0.065,0,0.0717,0.0779,0.0782,0.0849,0.0874,0.0859,0.092,0.0941,0.0946,0.0997,0.0957,0.0984,0.0879,0.0878,0.0856,0.0768,0.075,0.0742,0.0616,0.0613,0.0573,0.0691,0.0616,0.0579,0.0655,0.0656,0.0657,0,0.0779,0.0811,0.0885,0.0943,0.0958,0.0999,0.1075,0.112,0.1182,0.1194,0.1217,0.1182,0.1188,0.1073,0.0987,0.0981,0.0864,0.0776,0.0772,0.071,0.0602,0.0493,0.0586,0.0398,0.0665,0.0664,0.0664,0,0.0812,0.0881,0.094,0.0956,0.1021,0.1068,0.1108,0.1177,0.1239,0.1322,0.1378,0.1367,0.1371,0.1251,0.1085,0.1036,0.0974,0.088,0.0748,0.0743,0.0638,0.0622,0.0532,0.0821,0.0821,0.0821,0.0821,0,0.0863,0.091,0.0958,0.0989,0.1081,0.111,0.1221,0.1272,0.1371,0.1476,0.1473,0.1546,0.1412,0.1358,0.1174,0.1007,0.1045,0.0803,0.0753,0.0685,0.0674,0.047,0.0358,0.0819,0.082,0.082,0.082,0,0.0891,0.0918,0.0988,0.1065,0.1093,0.1158,0.1277,0.1369,0.1451,0.1594,0.1634,0.1691,0.1636,0.1483,0.1306,0.113,0.0843,0.0877,0.0809,0.0753,0.0451,0.035,0.0235,0.0154,0.0739,0.0738,0.0738,0,0.0915,0.095,0.1035,0.1084,0.112,0.1215,0.1299,0.1397,0.1503,0.1677,0.1761,0.1784,0.1812,0.1579,0.1295,0.1023,0.082,0.0759,0.0659,0.0467,0.0317,0.0259,0.0196,0.056,0.0558,0.0556,0.0555,0,0.0962,0.0985,0.1042,0.1138,0.1219,0.1331,0.1452,0.1545,0.169,0.1823,0.1981,0.2022,0.1829,0.157,0.1227,0.1003,0.0617,0.0719,0.0535,0.0208,0.0124,0.0011,0.0538,0.0542,0.0543,0.0544,0.0545,0.0545,0.0992,0.104,0.1109,0.1205,0.1304,0.1448,0.155,0.1701,0.1882,0.2082,0.2109,0.2171,0.1781,0.1323,0.1036,0.0471,0.0508,0.0253,0.0157,0.0127,0.003,0.0544,0.0486,0.0487,0.0488,0.0488,0.0489,0,0.1025,0.1083,0.1177,0.1296,0.1417,0.1465,0.166,0.1783,0.2,0.2141,0.2261,0.2069,0.1566,0.1069,0.0346,-0.0027,-0.0165,-0.0239,-0.0371,-0.0402,0.0052,0.0024,-0.0152,-0.0152,-0.0152,-0.0152,-0.0152,-0.0151,0.1041,0.1123,0.1178,0.1367,0.1464,0.1631,0.1746,0.193,0.2061,0.2211,0.2218,0.2226,0.1858,0.0525,-0.0343,-0.0543,-0.0786,-0.0857,-0.092,-0.0673,-0.0635,-0.06,-0.065,-0.0965,-0.0967,-0.1357,-0.1362,-0.1365]}],[{"header":{"parameterUnit":"m.s-1","parameterCategory":2,"la1":30.2991,"la2":30.254,"lo1":-89.0895,"lo2":-89.0444,"dy":0.0017,"dx":0.0017,"nx":28,"ny":28,"refTime":"2025-06-07T21:00:00:Z","depth":"2","parameterNumber":2,"parameterNumberName":"U-component_of_CURRENTS"},"data":[0,0,0,0,0,0,0,0,0,0,0,0,0,0,0,0,0,0,0,0,0,0,0,0,0,0,0,0,0,0,0,0,0,0,0,0,0,0,0,0,0,0,0,0,0,0,0,0,0,0,0,0,0,0,0,0,0,0,0.3575,0.3577,0,0.3625,0.3624,0.3624,0.3591,0.3591,0.3591,0.3591,0.3775,0.3779,0.3784,0,0,0,0,0,0,0,0,0,0,0,0,0,0.3296,0.3301,0.3575,0.3577,0.3579,0.3625,0.3624,0.3623,0.3591,0.3591,0.3591,0.3591,0.3773,0.3779,0.3785,0,0,0,0,0,0,0,0,0,0,0,0,0,0.3373,0.3302,0.3574,0.358,0.3583,0.3625,0.3624,0.3623,0.3591,0.3591,0.3591,0.359,0.3771,0.3778,0.3785,0.3831,0,0,0.3808,0.3811,0,0,0,0,0,0,0,0,0.3369,0.3381,0.3577,0.358,0.3583,0.3616,0.3594,0.3705,0.3591,0.357,0.3591,0.359,0.3745,0.3754,0.3738,0.384,0.3848,0.3809,0.3813,0.3816,0.3818,0,0,0,0,0,0,0,0.3364,0.3378,0.3578,0.358,0.3584,0.3529,0.3539,0.3612,0.3647,0.3572,0.3574,0.3606,0.3745,0.3731,0.3743,0.385,0.3808,0.3815,0.382,0.3822,0.4,0.4,0,0,0,0,0,0,0.34,0.3375,0.3577,0.3581,0.3492,0.3536,0.3547,0.3592,0.3643,0.3654,0.3606,0.3604,0.3718,0.3735,0.375,0.3915,0.3816,0.3823,0.3827,0.3999,0.4,0.4,0,0,0,0,0,0,0.3394,0.3418,0.3575,0.349,0.3509,0.3544,0.3593,0.3593,0.3625,0.367,0.3681,0.3644,0.3719,0.374,0.3862,0.3918,0.3826,0.3833,0.3999,0.3999,0.4,0.4177,0,0,0,0,0,0,0.3386,0.3416,0.347,0.3494,0.3516,0.3651,0.3595,0.3595,0.365,0.3649,0.3707,0.372,0.3721,0.3851,0.387,0.3926,0.3839,0.3999,0.3999,0.4,0.4171,0.4183,0.4194,0,0,0,0,0,0.3376,0.3455,0.3472,0.3498,0.3587,0.3657,0.3662,0.3671,0.3653,0.3691,0.3726,0.3721,0.3864,0.3861,0.3881,0.3941,0.3998,0.3999,0.4,0.4166,0.4181,0.4194,0,0,0,0,0,0,0.335,0.3462,0.348,0.3587,0.3645,0.3658,0.3703,0.3705,0.3753,0.3762,0.3774,0.3793,0.3918,0.3892,0.3887,0.3977,0.3911,0.3916,0.4029,0.4044,0.4056,0.404,0.3845,0,0,0,0,0,0.3379,0.348,0.3548,0.364,0.3672,0.3692,0.3725,0.3739,0.3784,0.3802,0.3849,0.3874,0.3925,0.396,0.4008,0.4088,0.4059,0.4113,0.4125,0.4136,0.4128,0.4145,0.4159,0.4002,0.4002,0.4002,0,0,0.3405,0.3475,0.3537,0.3645,0.3676,0.3726,0.3709,0.3786,0.383,0.3824,0.3917,0.3961,0.3962,0.4048,0.4093,0.4043,0.4168,0.4137,0.4147,0.4133,0.4147,0.4163,0.4177,0.4003,0.4003,0.4002,0,0,0.347,0.3558,0.3642,0.3694,0.3783,0.3796,0.3835,0.3891,0.3923,0.4027,0.4019,0.4089,0.4173,0.4171,0.4177,0.4274,0.4253,0.4284,0.4326,0.4345,0.4359,0.4371,0.4379,0.439,0.4263,0.4263,0.4263,0,0.3488,0.3593,0.3675,0.3739,0.3784,0.3832,0.3887,0.3932,0.4025,0.4066,0.4082,0.4181,0.4213,0.4269,0.4299,0.4308,0.4314,0.4293,0.4367,0.4377,0.4387,0.4391,0.4401,0.4272,0.4271,0.427,0.4269,0,0.3583,0.3667,0.3717,0.3814,0.3876,0.3944,0.4012,0.4081,0.4131,0.4174,0.4294,0.4332,0.4368,0.4391,0.4392,0.4461,0.4446,0.4413,0.4347,0.4415,0.4413,0.4421,0.4284,0.4281,0.4278,0.4276,0,0,0.3633,0.3753,0.3776,0.3801,0.3917,0.396,0.406,0.4147,0.4197,0.4308,0.4376,0.4468,0.4496,0.4498,0.4506,0.4521,0.4619,0.4508,0.4505,0.4544,0.4676,0.4411,0.4393,0.4627,0.4628,0.463,0.4659,0,0.3673,0.3756,0.3832,0.3914,0.3955,0.4028,0.4101,0.4196,0.4287,0.4379,0.4438,0.4532,0.4532,0.4576,0.4598,0.4645,0.4644,0.4614,0.4576,0.4574,0.4355,0.4393,0.413,0.411,0.4665,0.4667,0.4667,0,0.3751,0.3785,0.385,0.3926,0.3953,0.4016,0.4118,0.4201,0.4343,0.4414,0.4513,0.459,0.4684,0.4648,0.4727,0.4726,0.4704,0.4704,0.4704,0.4391,0.4321,0.4122,0.4102,0.4679,0.4678,0.4677,0.4677,0,0.3709,0.3813,0.3844,0.3875,0.3966,0.4019,0.4087,0.4225,0.4298,0.4464,0.4534,0.4655,0.4729,0.4756,0.4799,0.4788,0.4853,0.4817,0.4536,0.4519,0.4241,0.4192,0.4806,0.4806,0.4806,0.4806,0.4806,0,0.3705,0.3725,0.3828,0.3836,0.3881,0.3994,0.4073,0.4158,0.431,0.4395,0.4555,0.462,0.4767,0.4838,0.4834,0.4718,0.4875,0.4538,0.4499,0.429,0.4248,0.4685,0.467,0.4807,0.4806,0.4806,0.4806,0,0.3582,0.3676,0.3694,0.3799,0.386,0.388,0.404,0.41,0.4261,0.4378,0.4448,0.4646,0.4729,0.4813,0.4868,0.4721,0.4664,0.456,0.4299,0.4222,0.4308,0.4303,0.4243,0.4233,0.4226,0.4219,0.4214,0,0.3473,0.3499,0.3622,0.367,0.3712,0.3797,0.3877,0.4052,0.4133,0.4358,0.4403,0.4565,0.4561,0.4542,0.4445,0.4346,0.4491,0.3943,0.3806,0.4277,0.4248,0.4255,0.426,0.3551,0.354,0.3532,0.3525,0,0.3263,0.3349,0.3357,0.3478,0.3577,0.3646,0.3789,0.3831,0.4042,0.411,0.4207,0.4229,0.4245,0.4021,0.3892,0.379,0.3943,0.3746,0.4354,0.3688,0.3613,0.3588,0.3619,0.3448,0.3456,0.3462,0.3466,0.3469,0.3109,0.3059,0.3178,0.3272,0.3389,0.3495,0.3493,0.3609,0.3656,0.3706,0.3865,0.3742,0.3744,0.3361,0.3246,0.3174,0.3381,0.3201,0.3235,0.3276,0.3144,0.3053,0.2762,0.2765,0.2768,0.2771,0.2774,0,0.2931,0.2972,0.3005,0.3121,0.3185,0.3355,0.3438,0.3362,0.3314,0.3343,0.3318,0.2941,0.2734,0.2796,0.2552,0.2429,0.2493,0.2332,0.2451,0.2525,0.2592,0.2433,0.1859,0.1856,0.1854,0.1851,0,0,0.2869,0.2834,0.2856,0.2935,0.3054,0.3075,0.3094,0.2955,0.2891,0.2653,0.254,0.2597,0.2662,0.223,0.2157,0.1998,0.2258,0.1911,0.2647,0.2866,0.293,0.3088,0.2921,0,0,0,0,0]},{"header":{"parameterUnit":"m.s-1","parameterCategory":2,"la1":30.2991,"la2":30.254,"lo1":-89.0895,"lo2":-89.0444,"dy":0.0017,"dx":0.0017,"nx":28,"ny":28,"refTime":"2025-06-07T21:00:00:Z","depth":"2","parameterNumber":3,"parameterNumberName":"V-component_of_CURRENTS"},"data":[0,0,0,0,0,0,0,0,0,0,0,0,0,0,0,0,0,0,0,0,0,0,0,0,0,0,0,0,0,0,0,0,0,0,0,0,0,0,0,0,0,0,0,0,0,0,0,0,0,0,0,0,0,0,0,0,0,0,-0.0177,-0.0178,0,-0.0318,-0.032,-0.0322,-0.0421,-0.0421,-0.0421,-0.0421,-0.0478,-0.0479,-0.0481,0,0,0,0,0,0,0,0,0,0,0,0,0,-0.0139,-0.0139,-0.0177,-0.0178,-0.0179,-0.0317,-0.032,-0.0323,-0.0421,-0.0421,-0.0421,-0.0421,-0.0477,-0.0479,-0.0481,0,0,0,0,0,0,0,0,0,0,0,0,0,-0.0212,-0.0139,-0.0177,-0.0239,-0.0246,-0.0317,-0.032,-0.0323,-0.0421,-0.0421,-0.0421,-0.0421,-0.0477,-0.0479,-0.0481,-0.0493,0,0,-0.0488,-0.0489,0,0,0,0,0,0,0,0,-0.0207,-0.0214,-0.0229,-0.0235,-0.0242,-0.0345,-0.0327,-0.0373,-0.0421,-0.0363,-0.0421,-0.0421,-0.042,-0.0427,-0.0466,-0.0495,-0.0498,-0.0488,-0.0489,-0.049,-0.0491,0,0,0,0,0,0,0,-0.0202,-0.0209,-0.0241,-0.023,-0.0238,-0.0309,-0.0319,-0.0338,-0.0394,-0.0368,-0.0373,-0.0376,-0.0425,-0.0464,-0.0467,-0.0499,-0.0488,-0.049,-0.0491,-0.0492,-0.0429,-0.0426,0,0,0,0,0,0,-0.0161,-0.0204,-0.0236,-0.0244,-0.0216,-0.0308,-0.032,-0.0318,-0.0396,-0.0406,-0.0376,-0.038,-0.046,-0.0465,-0.047,-0.0368,-0.049,-0.0492,-0.0493,-0.0432,-0.0428,-0.0425,0,0,0,0,0,0,-0.016,-0.0163,-0.023,-0.0222,-0.0234,-0.0307,-0.0306,-0.0321,-0.0336,-0.0402,-0.0412,-0.0371,-0.046,-0.0466,-0.0429,-0.0375,-0.0493,-0.0495,-0.0435,-0.0431,-0.0427,-0.024,0,0,0,0,0,0,-0.0158,-0.0161,-0.0144,-0.0218,-0.0233,-0.0231,-0.0305,-0.0323,-0.0335,-0.0342,-0.04,-0.0408,-0.0461,-0.0425,-0.0431,-0.038,-0.0497,-0.0439,-0.0433,-0.0428,-0.025,-0.0229,-0.0212,0,0,0,0,0,-0.0156,-0.0127,-0.0142,-0.0146,-0.0207,-0.0228,-0.0242,-0.0302,-0.0334,-0.0321,-0.0343,-0.0405,-0.0395,-0.0423,-0.0432,-0.038,-0.0442,-0.0435,-0.0429,-0.0258,-0.0233,-0.0212,0,0,0,0,0,0,-0.0109,-0.0136,-0.0154,-0.0136,-0.0158,-0.0241,-0.0233,-0.0277,-0.0295,-0.0287,-0.0362,-0.0369,-0.0315,-0.0369,-0.0399,-0.0345,-0.0431,-0.0425,-0.0298,-0.0276,-0.0257,-0.0257,-0.0499,0,0,0,0,0,-0.0084,-0.0059,-0.0105,-0.0083,-0.0086,-0.0154,-0.017,-0.0201,-0.0229,-0.0241,-0.0269,-0.0295,-0.0301,-0.0302,-0.0314,-0.0283,-0.0349,-0.0257,-0.0238,-0.0221,-0.0225,-0.0246,-0.023,-0.0403,-0.0403,-0.0403,0,0,-0.005,-0.0067,-0.0048,-0.0068,-0.0094,-0.0087,-0.0164,-0.0157,-0.0145,-0.0237,-0.02,-0.0219,-0.0274,-0.0231,-0.0215,-0.0266,-0.0206,-0.0213,-0.0198,-0.0212,-0.0238,-0.0221,-0.0207,-0.0398,-0.0399,-0.04,0,0,0.0017,0.0013,0.005,0.0041,0.0028,-0.001,0.0007,-0.0035,-0.0041,-0.001,-0.0064,-0.0049,-0.0061,-0.0091,-0.0113,-0.0001,-0.0097,0.0008,0.0094,0.0075,0.0089,0.01,0.0037,0.0041,0.0007,0.0008,0.0008,0,0.0057,0.008,0.006,0.0082,0.0088,0.0037,0.0071,0.0056,0.0039,0.0068,0.0039,0.004,-0.0005,0.0022,0.0059,0.004,0.0006,0.0014,0.0099,0.0109,0.0117,0.0049,0.0051,0.0018,0.0017,0.0016,0.0015,0,0.0129,0.0156,0.0182,0.0196,0.0208,0.0233,0.0219,0.0251,0.0244,0.0236,0.0294,0.0234,0.0233,0.0224,0.017,0.0218,0.0168,0.0135,0.0041,0.0145,0.0067,0.0066,0.0032,0.0028,0.0025,0.0023,0,0,0.0187,0.0225,0.0232,0.0254,0.0269,0.0279,0.0347,0.0383,0.0435,0.0436,0.0498,0.0473,0.0458,0.0431,0.0372,0.0337,0.0356,0.0274,0.0269,0.0208,0.03,0.021,0.0198,0.0356,0.0357,0.0358,0.0222,0,0.0241,0.0297,0.0311,0.038,0.0406,0.0416,0.0477,0.0522,0.0557,0.0618,0.058,0.0621,0.0532,0.0545,0.0508,0.0415,0.0362,0.0394,0.0208,0.0201,0.0108,0.0198,0.0216,0.0093,0.022,0.0219,0.0219,0,0.0297,0.0318,0.0393,0.0461,0.0479,0.0526,0.0623,0.0675,0.0763,0.0797,0.0841,0.0827,0.0812,0.0706,0.0579,0.0618,0.0474,0.0364,0.0357,0.0201,0.011,0.0009,0.0084,0.0215,0.0215,0.0215,0.0216,0,0.0313,0.0381,0.0439,0.0457,0.0527,0.0591,0.0643,0.0747,0.0831,0.0926,0.1001,0.0984,0.0988,0.084,0.0658,0.0632,0.049,0.0418,0.0179,0.0169,0.0106,0.0089,0.0294,0.0294,0.0294,0.0294,0.0295,0,0.0345,0.0384,0.0452,0.0475,0.0568,0.0627,0.0759,0.082,0.0956,0.1089,0.1098,0.1169,0.103,0.0953,0.0732,0.0477,0.0551,0.02,0.0142,0.017,0.0162,0.02,0.0191,0.0289,0.029,0.0291,0.0292,0,0.0336,0.0382,0.0438,0.0528,0.0579,0.0642,0.0822,0.0933,0.1046,0.1219,0.1268,0.1334,0.1228,0.1039,0.0799,0.0577,0.0327,0.0197,0.0222,0.0169,-0.0019,-0.0016,-0.0094,-0.0098,-0.0101,-0.0104,-0.0107,0,0.0336,0.0369,0.0465,0.0535,0.0581,0.0702,0.0824,0.0963,0.1106,0.131,0.1406,0.1397,0.1375,0.1002,0.0657,0.0268,0.0246,0.0002,-0.0073,-0.0003,-0.0051,-0.0043,-0.0037,-0.0089,-0.0091,-0.0092,-0.0094,0,0.0334,0.0366,0.0408,0.0552,0.0676,0.0815,0.1002,0.1119,0.1319,0.1465,0.1632,0.1626,0.131,0.0962,0.0468,0.0204,0.0074,-0.0053,0.0063,0.0005,-0.0009,-0.0053,-0.0044,-0.0108,-0.0107,-0.0106,-0.0105,-0.0104,0.0346,0.0364,0.0465,0.0597,0.0752,0.0962,0.1099,0.1297,0.1515,0.1734,0.1714,0.1671,0.1307,0.0634,0.0281,-0.0074,-0.0108,-0.0273,-0.0262,-0.0251,-0.0228,-0.0247,-0.0389,-0.0389,-0.039,-0.039,-0.039,0,0.0389,0.0439,0.0544,0.0726,0.0921,0.1006,0.1266,0.1409,0.1665,0.1741,0.182,0.142,0.1018,0.0632,0.0071,-0.03,-0.0271,-0.0392,-0.0274,-0.0261,-0.0249,-0.0219,-0.0381,-0.0381,-0.0382,-0.0382,0,0,0.043,0.0514,0.0562,0.0874,0.1039,0.1303,0.146,0.1631,0.172,0.1768,0.1706,0.1535,0.1056,0.0646,0.0204,-0.0076,-0.0079,-0.0129,-0.0114,0.0087,0.0105,-0.0178,-0.0119,0,0,0,0,0]}],[{"header":{"parameterUnit":"m.s-1","parameterCategory":2,"la1":30.2991,"la2":30.254,"lo1":-89.0895,"lo2":-89.0444,"dy":0.0017,"dx":0.0017,"nx":28,"ny":28,"refTime":"2025-06-07T21:00:00:Z","depth":"4","parameterNumber":2,"parameterNumberName":"U-component_of_CURRENTS"},"data":[0,0,0,0,0,0,0,0,0,0,0,0,0,0,0,0,0,0,0,0,0,0,0,0,0,0,0,0,0,0,0,0,0,0,0,0,0,0,0,0,0,0,0,0,0,0,0,0,0,0,0,0,0,0,0,0,0,0,0.0464,0.0465,0,0.0531,0.0531,0.0532,0.0583,0.0584,0.0585,0.0585,0.0637,0.0638,0.0638,0,0,0,0,0,0,0,0,0,0,0,0,0,0.0367,0.0369,0.0464,0.0465,0.0466,0.0531,0.0531,0.0532,0.0583,0.0584,0.0585,0.0585,0.0637,0.0638,0.0639,0,0,0,0,0,0,0,0,0,0,0,0,0,0.0418,0.0369,0.0464,0.05,0.0504,0.053,0.0531,0.0532,0.0583,0.0584,0.0585,0.0586,0.0636,0.0637,0.0639,0.0628,0,0,0.0642,0.0643,0,0,0,0,0,0,0,0,0.0415,0.0421,0.0494,0.0497,0.0502,0.0551,0.0517,0.0564,0.0583,0.0552,0.0585,0.0586,0.0607,0.061,0.0619,0.0631,0.0633,0.0642,0.0643,0.0644,0.0644,0,0,0,0,0,0,0,0.0411,0.0419,0.0489,0.0495,0.05,0.0509,0.0517,0.0526,0.0572,0.0554,0.0559,0.0568,0.0609,0.0618,0.0621,0.0634,0.0642,0.0644,0.0644,0.0645,0.0751,0.0753,0,0,0,0,0,0,0.0406,0.0415,0.0487,0.0491,0.0461,0.051,0.0519,0.0533,0.0572,0.058,0.0567,0.057,0.0616,0.062,0.0623,0.0698,0.0644,0.0645,0.0646,0.0749,0.0752,0.0754,0,0,0,0,0,0,0.0403,0.0412,0.0484,0.0455,0.0465,0.0511,0.0526,0.0534,0.0577,0.0582,0.0589,0.0606,0.0617,0.0621,0.068,0.0697,0.0645,0.0647,0.0747,0.075,0.0753,0.0794,0,0,0,0,0,0,0.04,0.041,0.0432,0.0455,0.0467,0.0517,0.0526,0.0535,0.058,0.0585,0.0617,0.0621,0.0618,0.0679,0.0681,0.0698,0.0648,0.0744,0.0748,0.0752,0.079,0.0798,0.0805,0,0,0,0,0,0.0397,0.0418,0.0433,0.0442,0.0491,0.0518,0.0525,0.0558,0.0581,0.0601,0.0644,0.0622,0.0705,0.0682,0.0684,0.0702,0.0742,0.0747,0.0752,0.0786,0.0796,0.0805,0,0,0,0,0,0,0.0405,0.0426,0.0443,0.0476,0.0503,0.0528,0.0562,0.0577,0.0626,0.0648,0.0653,0.066,0.0734,0.0713,0.0687,0.0748,0.0718,0.0723,0.0743,0.0753,0.076,0.0868,0.0649,0,0,0,0,0,0.0411,0.0421,0.0455,0.0481,0.0509,0.0542,0.0564,0.0584,0.0622,0.0646,0.0673,0.0705,0.0748,0.0748,0.0792,0.0803,0.086,0.0817,0.0825,0.0831,0.0924,0.1027,0.1053,0.077,0.077,0.077,0,0,0.0421,0.0434,0.0443,0.0481,0.0517,0.0549,0.0559,0.0606,0.0634,0.0642,0.0714,0.0756,0.0772,0.0817,0.084,0.0795,0.0928,0.0837,0.0842,0.0934,0.1035,0.1063,0.1088,0.0773,0.0772,0.0772,0,0,0.0428,0.0468,0.0479,0.0509,0.0557,0.0576,0.0597,0.0647,0.0683,0.0747,0.0776,0.0879,0.0876,0.0935,0.0949,0.1032,0.0997,0.0971,0.1055,0.1151,0.1176,0.12,0.1247,0.1274,0.0932,0.0933,0.0933,0,0.0445,0.0466,0.049,0.0518,0.0548,0.0593,0.0626,0.0664,0.0724,0.0775,0.0784,0.0934,0.0972,0.1054,0.1094,0.1061,0.1062,0.1005,0.1164,0.1188,0.1212,0.1255,0.1285,0.0935,0.0935,0.0935,0.0934,0,0.0452,0.049,0.0514,0.0554,0.0583,0.0628,0.0677,0.0737,0.0795,0.0842,0.0983,0.1068,0.1159,0.116,0.1161,0.1304,0.1232,0.1189,0.1141,0.1243,0.128,0.1311,0.0939,0.0938,0.0937,0.0936,0,0,0.0435,0.0505,0.0517,0.0552,0.0614,0.0641,0.0711,0.0794,0.0876,0.097,0.1079,0.1234,0.1302,0.1336,0.1337,0.1438,0.1607,0.137,0.1374,0.1422,0.1757,0.1493,0.15,0.1536,0.1543,0.1548,0.1694,0,0.0445,0.0498,0.0524,0.0588,0.063,0.0698,0.0767,0.0848,0.0932,0.1047,0.1182,0.1313,0.1337,0.1402,0.1508,0.1576,0.1697,0.1571,0.1654,0.1659,0.1416,0.1533,0.157,0.1717,0.1724,0.1729,0.1732,0,0.0434,0.0476,0.0536,0.0634,0.0667,0.0719,0.0854,0.0931,0.1088,0.1174,0.1317,0.1377,0.1562,0.1581,0.1803,0.168,0.1782,0.1849,0.1853,0.1644,0.1456,0.1611,0.1788,0.1783,0.1779,0.1775,0.1772,0,0.0387,0.0482,0.0532,0.0563,0.068,0.075,0.0849,0.0993,0.11,0.1284,0.1361,0.1526,0.1642,0.1785,0.1859,0.185,0.2055,0.2047,0.1932,0.191,0.2084,0.2059,0.2321,0.2321,0.2321,0.232,0.232,0,0.0366,0.0413,0.0537,0.0567,0.0679,0.0775,0.0939,0.1047,0.1237,0.1345,0.145,0.1534,0.171,0.1766,0.1872,0.192,0.2059,0.2024,0.1963,0.2083,0.2057,0.2101,0.2073,0.2326,0.2324,0.2323,0.2322,0,0.03,0.0373,0.0442,0.0591,0.0653,0.0752,0.1001,0.1115,0.1295,0.1425,0.1488,0.1599,0.1671,0.1731,0.1941,0.1922,0.2013,0.2016,0.2091,0.2017,0.1828,0.1802,0.1991,0.1984,0.1978,0.1973,0.1968,0,0.0273,0.0298,0.0448,0.0512,0.0593,0.0782,0.0906,0.114,0.1226,0.1429,0.1435,0.1555,0.1592,0.1662,0.1752,0.1858,0.1883,0.191,0.1999,0.1891,0.1812,0.1795,0.1777,0.1958,0.1957,0.1955,0.1953,0,0.0218,0.0272,0.0338,0.0467,0.059,0.0745,0.0917,0.0974,0.1192,0.1336,0.1422,0.1487,0.1523,0.1603,0.1615,0.1716,0.1868,0.1848,0.1867,0.1952,0.1852,0.1776,0.1766,0.1932,0.1935,0.1937,0.1938,0,0.0186,0.0221,0.0309,0.0419,0.0559,0.0652,0.0773,0.0902,0.1047,0.123,0.1251,0.1373,0.1505,0.1527,0.1543,0.1558,0.1654,0.1697,0.1726,0.1751,0.1589,0.1421,0.1377,0,0,0,0,0,0.0167,0.0195,0.0267,0.0369,0.0494,0.0582,0.0738,0.0844,0.0994,0.1038,0.1173,0.1213,0.131,0.1375,0.1363,0.1415,0.1599,0.1392,0.1648,0.1812,0.1837,0.1659,0,0,0,0,0,0,0.0149,0.0209,0.0231,0.0302,0.0363,0.0499,0.0596,0.0695,0.0742,0.0906,0.0968,0.1144,0.1231,0.1301,0.1339,0.1353,0.1498,0.149,0.1488,0.1798,0.182,0.184,0.1666,0,0,0,0,0]},{"header":{"parameterUnit":"m.s-1","parameterCategory":2,"la1":30.2991,"la2":30.254,"lo1":-89.0895,"lo2":-89.0444,"dy":0.0017,"dx":0.0017,"nx":28,"ny":28,"refTime":"2025-06-07T21:00:00:Z","depth":"4","parameterNumber":3,"parameterNumberName":"V-component_of_CURRENTS"},"data":[0,0,0,0,0,0,0,0,0,0,0,0,0,0,0,0,0,0,0,0,0,0,0,0,0,0,0,0,0,0,0,0,0,0,0,0,0,0,0,0,0,0,0,0,0,0,0,0,0,0,0,0,0,0,0,0,0,0,0.0299,0.0298,0,0.0234,0.0233,0.0232,0.0246,0.0248,0.0249,0.025,0.0137,0.0133,0.0129,0,0,0,0,0,0,0,0,0,0,0,0,0,0.0291,0.0292,0.0299,0.0298,0.0298,0.0234,0.0233,0.0231,0.0246,0.0248,0.0249,0.0251,0.0139,0.0134,0.0128,0,0,0,0,0,0,0,0,0,0,0,0,0,0.0265,0.0292,0.0299,0.0299,0.0299,0.0234,0.0232,0.0231,0.0245,0.0248,0.025,0.0252,0.0141,0.0134,0.0128,0.0042,0,0,0.0107,0.0105,0,0,0,0,0,0,0,0,0.0266,0.0265,0.03,0.0299,0.0299,0.0253,0.0189,0.0166,0.0245,0.0263,0.025,0.0253,0.0172,0.0163,0.0142,0.0036,0.0032,0.0107,0.0103,0.01,0.0098,0,0,0,0,0,0,0,0.0268,0.0267,0.027,0.0299,0.0298,0.0254,0.0253,0.0184,0.0202,0.0261,0.0263,0.026,0.0171,0.0148,0.0139,0.003,0.0107,0.0101,0.0097,0.0094,-0.0162,-0.0165,0,0,0,0,0,0,0.0288,0.0269,0.0272,0.0268,0.0291,0.0253,0.0252,0.0263,0.0204,0.0198,0.0258,0.0261,0.0158,0.0147,0.0135,0.0029,0.01,0.0094,0.009,-0.016,-0.0163,-0.0166,0,0,0,0,0,0,0.0288,0.0289,0.0275,0.0269,0.0264,0.0252,0.0263,0.026,0.0252,0.0202,0.0196,0.0254,0.016,0.0145,0.0065,0.0025,0.0091,0.0085,-0.0156,-0.0161,-0.0165,-0.0183,0,0,0,0,0,0,0.0288,0.029,0.0302,0.0271,0.0266,0.0243,0.0261,0.0258,0.0247,0.025,0.0196,0.0188,0.016,0.0075,0.0058,0.0017,0.008,-0.0153,-0.0158,-0.0163,-0.0179,-0.0187,-0.0195,0,0,0,0,0,0.0288,0.0299,0.0303,0.0304,0.0285,0.0242,0.0234,0.023,0.0245,0.0232,0.0186,0.019,0.003,0.0067,0.0048,0.0005,-0.015,-0.0157,-0.0163,-0.0175,-0.0186,-0.0195,0,0,0,0,0,0,0.031,0.03,0.0305,0.0316,0.0285,0.0246,0.024,0.0229,0.0182,0.0187,0.0148,0.0133,0.0035,0.0019,0.0062,-0.0088,-0.0059,-0.0069,-0.0062,-0.0072,-0.008,-0.0048,0.0074,0,0,0,0,0,0.0318,0.0321,0.0297,0.0303,0.0295,0.0265,0.025,0.0238,0.0195,0.018,0.0137,0.0077,-0.0013,-0.0035,-0.0117,-0.0189,-0.0187,-0.023,-0.0238,-0.0244,-0.0234,-0.0265,-0.0273,-0.0187,-0.0187,-0.0187,0,0,0.0328,0.0322,0.0326,0.0306,0.0289,0.0261,0.0262,0.0236,0.0201,0.0169,0.0108,0.0032,-0.0047,-0.0141,-0.0182,-0.0147,-0.0274,-0.0252,-0.0256,-0.0243,-0.0272,-0.028,-0.0287,-0.0192,-0.0191,-0.019,0,0,0.0336,0.0346,0.0347,0.0319,0.0289,0.0261,0.0256,0.021,0.0185,0.0105,0.0056,-0.003,-0.0137,-0.0203,-0.0252,-0.0352,-0.0336,-0.0381,-0.037,-0.0401,-0.0407,-0.0412,-0.0431,-0.0438,-0.0357,-0.0358,-0.0358,0,0.0345,0.0355,0.0335,0.0319,0.0302,0.0265,0.0247,0.0197,0.0125,0.0088,0.0088,-0.0115,-0.017,-0.0302,-0.0329,-0.0368,-0.0371,-0.0321,-0.0406,-0.0411,-0.0416,-0.0434,-0.0441,-0.0359,-0.0359,-0.0359,-0.0359,0,0.0348,0.0351,0.0347,0.032,0.0287,0.0265,0.0203,0.0159,0.0121,0.0064,-0.0074,-0.0175,-0.0275,-0.0327,-0.0353,-0.0441,-0.043,-0.0429,-0.0366,-0.0425,-0.0442,-0.0449,-0.0362,-0.0361,-0.036,-0.036,0,0,0.0375,0.0356,0.0356,0.0351,0.029,0.0265,0.0198,0.0124,0.0088,-0.0024,-0.0092,-0.0264,-0.0307,-0.0366,-0.0434,-0.0457,-0.0498,-0.0438,-0.0439,-0.043,-0.0552,-0.0508,-0.0511,-0.0498,-0.05,-0.0501,-0.0552,0,0.0385,0.0381,0.0355,0.0331,0.0322,0.0263,0.0211,0.0129,0.0051,-0.003,-0.0167,-0.0266,-0.0329,-0.0369,-0.0422,-0.0499,-0.0515,-0.0484,-0.052,-0.0521,-0.0452,-0.0517,-0.0505,-0.0557,-0.0558,-0.0559,-0.056,0,0.0394,0.0392,0.0391,0.0358,0.035,0.0328,0.0252,0.02,0.0066,0.0004,-0.013,-0.0235,-0.0364,-0.0367,-0.0519,-0.0491,-0.051,-0.0549,-0.0552,-0.0502,-0.049,-0.0489,-0.0572,-0.0571,-0.057,-0.0569,-0.0568,0,0.0426,0.0411,0.0423,0.0408,0.036,0.0352,0.0331,0.0222,0.0188,0.0045,-0.0006,-0.0201,-0.0275,-0.0371,-0.0492,-0.0486,-0.0614,-0.0616,-0.0602,-0.0599,-0.0608,-0.0602,-0.0666,-0.0666,-0.0666,-0.0666,-0.0666,0,0.0435,0.0441,0.0456,0.0453,0.0467,0.0421,0.0422,0.0347,0.0271,0.021,0.0037,-0.0057,-0.0266,-0.0392,-0.0481,-0.058,-0.0611,-0.0609,-0.0613,-0.062,-0.0615,-0.0613,-0.0606,-0.0668,-0.0667,-0.0667,-0.0667,0,0.0446,0.046,0.0469,0.0468,0.0484,0.0496,0.0521,0.0506,0.0427,0.0341,0.0301,0.0069,-0.0105,-0.0309,-0.0468,-0.0543,-0.0645,-0.0648,-0.0646,-0.0648,-0.0608,-0.0602,-0.065,-0.0649,-0.0648,-0.0647,-0.0647,0,0.0443,0.0458,0.0499,0.0528,0.054,0.0589,0.0618,0.0588,0.0544,0.0405,0.0333,0.0164,-0.0008,-0.0222,-0.0414,-0.0601,-0.0603,-0.0649,-0.0636,-0.0609,-0.0608,-0.0604,-0.0599,-0.0645,-0.0645,-0.0645,-0.0645,0,0.042,0.0454,0.0465,0.0544,0.0598,0.0668,0.0687,0.0655,0.0579,0.0537,0.0379,0.0227,0.0033,-0.0189,-0.0334,-0.0465,-0.0638,-0.064,-0.0643,-0.063,-0.0604,-0.0603,-0.06,-0.0642,-0.0642,-0.0642,-0.0643,0,0.0406,0.042,0.0464,0.0526,0.0639,0.069,0.0694,0.0657,0.0639,0.0453,0.0426,0.0214,0.0095,-0.0114,-0.0257,-0.0392,-0.041,-0.0431,-0.0445,-0.045,-0.0384,-0.032,-0.0277,0,0,0,0,0,0.0385,0.0399,0.0445,0.0498,0.0628,0.0711,0.0712,0.0687,0.0604,0.0519,0.0474,0.0302,0.008,-0.0038,-0.0158,-0.026,-0.046,-0.0405,-0.0497,-0.0625,-0.0628,-0.0581,0,0,0,0,0,0,0.0362,0.0399,0.0417,0.0511,0.0582,0.0701,0.0733,0.0654,0.0582,0.049,0.037,0.0334,0.0102,0.0182,-0.0129,-0.0178,-0.0241,-0.0508,-0.0509,-0.0623,-0.0626,-0.0629,-0.0582,0,0,0,0,0]}]]